Regional Weather Roundup
Issued by NWS

Home | Current Version | Previous Version | Graphics & Text | Print | Product List | Glossary On
Versions: 1 2 3 4 5 6 7 8 9 10 11 12 13 14 15 16 17 18 19 20 21 22 23 24 25 26 27 28 29 30 31 32 33 34 35 36 37 38 39 40 41 42 43 44 45 46 47 48 49 50
000
ASUS45 KSLC 121210
RWRUT

UTAH REGIONAL WEATHER ROUNDUP
NATIONAL WEATHER SERVICE SALT LAKE CITY UT
600 AM MDT SAT JUL 12 2014

UTZ001>011-023>025-121300-

NORTHERN UTAH

CITY           SKY/WX    TMP DP  RH WIND       PRES   REMARKS
HILL AFB       CLEAR     65  55  70 E16       30.19R
LOGAN          CLEAR     56  54  93 CALM      30.21R
OGDEN          CLEAR     66  54  65 S6        30.16R
PROVO AIRPORT  CLEAR     64  55  72 S6        30.19R
SALT LAKE CITY PTCLDY    67  57  70 CALM      30.14R
VERNAL         CLEAR     63  50  63 CALM      30.22R
WENDOVER       CLOUDY    73  55  53 NE3       30.15S
HEBER CITY     CLEAR     54  52  94 CALM      30.28R

$$

UTZ012>022-026-027-121300-

SOUTHERN UTAH

CITY           SKY/WX    TMP DP  RH WIND       PRES   REMARKS
BRYCE CANYON   CLEAR     47  43  86 W9        30.38R
CEDAR CITY     CLEAR     58  42  55 CALM      30.22R
MILFORD        CLEAR     61  52  72 S9        30.18R
MOAB/CYNLANDS  CLEAR     71  54  54 E5        30.11R
PRICE          CLEAR     64  50  60 CALM      30.23R
ST GEORGE      SUNNY     73  45  35 CALM      30.05R

$$

REGIONAL REPORTS     COLORADO/ARIZONA

CITY           SKY/WX    TMP DP  RH WIND       PRES   REMARKS
CRAIG, CO      PTCLDY    54  54 100 E3        30.29R
GRAND JUNCTION CLEAR     66  53  63 CALM      30.17R
RIFLE          MOCLDY    58  55  90 E5        30.25R
MONTROSE       PTCLDY    63  54  72 SE3       30.26R
CORTEZ         PTCLDY    62  55  77 CALM      30.26R
PAGE, AZ       CLEAR     77  42  28 SW5       30.10R
GRAND CANYON   PTCLDY    51  47  86 CALM      30.30R
KINGMAN        CLEAR     69  49  48 SE8       30.06R
FLAGSTAFF      PTCLDY    58  47  66 SW3       30.32R

$$

REGIONAL REPORTS    NEVADA/IDAHO/WYOMING

CITY           SKY/WX    TMP DP  RH WIND       PRES   REMARKS
LAS VEGAS, NV  PTCLDY    79  37  22 S8        29.92R
ELY            PTCLDY    54  49  83 S9        30.30R
ELKO           PTCLDY    59  55  87 CALM      30.22R
POCATELLO, ID  CLEAR     65  51  60 S5        30.17R
BURLEY         MOCLDY    65  54  67 S5        30.14R
EVANSTON, WY   CLEAR     55  51  86 NE5       30.36R
ROCK SPRINGS   MOCLDY    57  50  77 E3        30.34R

$$



USA.gov is the U.S. government's official web portal to all federal, state and local government web resources and services.